UAL285 KIAH-MMUN

Flight info

Callsign UAL285
Flight time 1h 47m
Altitude 37000
Route FLYZA5 KELPP A766 KEHLI UL209 BETAS DCT VOMAR VOMAR1A
Aircraft A320/M-SDE3FGHIRWY/LB1

Departure

Time 2026-05-07 18:26
Airport George Bush Intercontinental Airport (KIAH)

Arrival

Time 2026-05-07 20:13
Airport Cancún International Airport (MMUN)
Time Latitude Longitude Altitude Speed Heading
2026-05-07 18:00 29.98939 -95.34108 107 ft 0 kts 240°
2026-05-07 18:15 29.98940 -95.34105 107 ft 3 kts 241°
2026-05-07 18:15 29.98949 -95.34078 105 ft 4 kts 271°
2026-05-07 18:16 29.98941 -95.34053 104 ft 4 kts 326°
2026-05-07 18:16 29.98917 -95.34042 105 ft 4 kts 352°
2026-05-07 18:16 29.98891 -95.34040 106 ft 2 kts 360°
2026-05-07 18:16 29.98889 -95.34040 106 ft 0 kts
2026-05-07 18:21 29.98899 -95.34040 106 ft 5 kts 360°
2026-05-07 18:21 29.98966 -95.34041 107 ft 14 kts 360°
2026-05-07 18:22 29.99068 -95.34050 107 ft 15 kts 330°
2026-05-07 18:22 29.99087 -95.34127 107 ft 16 kts 268°
2026-05-07 18:22 29.99085 -95.34317 107 ft 20 kts 269°
2026-05-07 18:22 29.99085 -95.34486 107 ft 22 kts 270°
2026-05-07 18:23 29.99086 -95.34675 107 ft 25 kts 269°
2026-05-07 18:23 29.99086 -95.34883 107 ft 27 kts 270°
2026-05-07 18:23 29.99091 -95.35109 107 ft 29 kts 271°
2026-05-07 18:23 29.99091 -95.35346 107 ft 30 kts 270°
2026-05-07 18:24 29.99061 -95.35489 107 ft 8 kts 193°
2026-05-07 18:24 29.98999 -95.35484 107 ft 13 kts 180°
2026-05-07 18:24 29.98897 -95.35521 107 ft 19 kts 229°
2026-05-07 18:24 29.98830 -95.35669 107 ft 21 kts 242°
2026-05-07 18:25 29.98766 -95.35770 109 ft 8 kts 169°
2026-05-07 18:25 29.98717 -95.35742 108 ft 7 kts 152°
2026-05-07 18:25 29.98645 -95.35698 108 ft 29 kts 152°
2026-05-07 18:25 29.98243 -95.35451 107 ft 101 kts 153°
2026-05-07 18:26 29.97441 -95.34959 106 ft 156 kts 152°
2026-05-07 18:26 29.96400 -95.34325 441 ft 171 kts 147°
2026-05-07 18:26 29.95480 -95.33472 1090 ft 170 kts 127°
2026-05-07 18:26 29.94668 -95.32475 1780 ft 171 kts 127°
2026-05-07 18:27 29.93833 -95.31393 2116 ft 192 kts 124°
2026-05-07 18:27 29.92967 -95.30103 2429 ft 215 kts 122°
2026-05-07 18:27 29.92039 -95.28661 2824 ft 235 kts 123°
2026-05-07 18:27 29.91377 -95.27647 3209 ft 244 kts 125°
2026-05-07 18:28 29.89896 -95.25448 3864 ft 271 kts 127°
2026-05-07 18:28 29.88714 -95.23742 4008 ft 274 kts 127°
2026-05-07 18:28 29.87559 -95.21961 4710 ft 279 kts 126°
2026-05-07 18:28 29.86427 -95.20136 4938 ft 280 kts 126°
2026-05-07 18:29 29.85312 -95.18307 4993 ft 278 kts 126°
2026-05-07 18:29 29.84200 -95.16482 5002 ft 279 kts 126°
2026-05-07 18:29 29.83080 -95.14661 4988 ft 278 kts 126°
2026-05-07 18:29 29.81825 -95.13029 5010 ft 277 kts 142°
2026-05-07 18:30 29.80268 -95.11670 5718 ft 281 kts 143°
2026-05-07 18:30 29.78703 -95.10299 6591 ft 285 kts 143°
2026-05-07 18:30 29.77112 -95.08896 7371 ft 290 kts 143°
2026-05-07 18:30 29.75480 -95.07501 8145 ft 294 kts 149°
2026-05-07 18:31 29.73638 -95.06473 8922 ft 296 kts 162°
2026-05-07 18:31 29.71699 -95.05651 9740 ft 298 kts 161°
2026-05-07 18:31 29.69726 -95.04820 10326 ft 310 kts 162°
2026-05-07 18:31 29.67621 -95.03938 10546 ft 334 kts 162°
2026-05-07 18:32 29.65390 -95.03001 10954 ft 346 kts 162°
2026-05-07 18:32 29.63116 -95.02042 11605 ft 350 kts 162°
2026-05-07 18:32 29.60822 -95.01069 12313 ft 352 kts 162°
2026-05-07 18:32 29.58516 -95.00088 13023 ft 354 kts 163°
2026-05-07 18:33 29.56196 -94.99103 13738 ft 356 kts 163°
2026-05-07 18:33 29.53864 -94.98114 14379 ft 358 kts 163°
2026-05-07 18:33 29.51514 -94.97119 14993 ft 361 kts 164°
2026-05-07 18:33 29.49148 -94.96118 15594 ft 364 kts 165°
2026-05-07 18:34 29.46763 -94.95111 15894 ft 366 kts 165°
2026-05-07 18:34 29.44370 -94.94104 15961 ft 366 kts 165°
2026-05-07 18:34 29.42011 -94.93114 15994 ft 367 kts 165°
2026-05-07 18:34 29.39615 -94.92108 16027 ft 369 kts 165°
2026-05-07 18:35 29.37196 -94.91095 16609 ft 371 kts 166°
2026-05-07 18:35 29.34762 -94.90076 17218 ft 374 kts 166°
2026-05-07 18:35 29.32308 -94.89047 17812 ft 377 kts 166°
2026-05-07 18:35 29.29842 -94.87987 18396 ft 382 kts 163°
2026-05-07 18:36 29.27478 -94.86502 18902 ft 395 kts 152°
2026-05-07 18:36 29.25363 -94.84425 19418 ft 408 kts 139°
2026-05-07 18:36 29.23536 -94.81884 19939 ft 416 kts 134°
2026-05-07 18:36 29.21738 -94.79279 20466 ft 419 kts 135°
2026-05-07 18:37 29.19916 -94.76657 20988 ft 422 kts 135°
2026-05-07 18:37 29.18078 -94.74018 21497 ft 426 kts 135°
2026-05-07 18:37 29.16224 -94.71358 21961 ft 430 kts 135°
2026-05-07 18:37 29.14352 -94.68674 22411 ft 434 kts 135°
2026-05-07 18:38 29.12465 -94.65964 22885 ft 437 kts 135°
2026-05-07 18:38 29.10561 -94.63229 23350 ft 441 kts 135°
2026-05-07 18:38 29.08647 -94.60476 23775 ft 444 kts 135°
2026-05-07 18:38 29.06738 -94.57733 24154 ft 447 kts 135°
2026-05-07 18:39 29.04792 -94.54943 24523 ft 451 kts 135°
2026-05-07 18:39 29.02827 -94.52134 24882 ft 454 kts 135°
2026-05-07 18:39 29.00848 -94.49307 25253 ft 457 kts 135°
2026-05-07 18:39 28.98856 -94.46456 25630 ft 460 kts 135°
2026-05-07 18:40 28.96857 -94.43595 25986 ft 462 kts 135°
2026-05-07 18:40 28.94843 -94.40717 26353 ft 465 kts 135°
2026-05-07 18:40 28.92814 -94.37823 26699 ft 467 kts 135°
2026-05-07 18:40 28.90779 -94.34922 27048 ft 470 kts 136°
2026-05-07 18:41 28.88730 -94.32002 27376 ft 472 kts 136°
2026-05-07 18:41 28.86669 -94.29069 27740 ft 474 kts 136°
2026-05-07 18:41 28.84600 -94.26121 28101 ft 477 kts 136°
2026-05-07 18:41 28.82524 -94.23165 28451 ft 479 kts 136°
2026-05-07 18:42 28.80437 -94.20193 28799 ft 481 kts 136°
2026-05-07 18:42 28.78336 -94.17211 29128 ft 484 kts 136°
2026-05-07 18:42 28.76215 -94.14207 29453 ft 487 kts 136°
2026-05-07 18:42 28.74086 -94.11192 29795 ft 489 kts 136°
2026-05-07 18:43 28.71947 -94.08162 30102 ft 492 kts 136°
2026-05-07 18:43 28.69823 -94.05153 30378 ft 494 kts 136°
2026-05-07 18:43 28.67675 -94.02109 30772 ft 493 kts 136°
2026-05-07 18:43 28.65529 -93.99072 31183 ft 491 kts 136°
2026-05-07 18:44 28.63388 -93.96045 31587 ft 491 kts 136°
2026-05-07 18:44 28.61252 -93.93026 31995 ft 490 kts 136°
2026-05-07 18:44 28.59836 -93.91025 32244 ft 489 kts 136°
2026-05-07 18:44 28.57709 -93.88021 32740 ft 486 kts 136°
2026-05-07 18:45 28.55591 -93.85031 33197 ft 484 kts 136°
2026-05-07 18:45 28.53478 -93.82051 33637 ft 483 kts 136°
2026-05-07 18:45 28.51371 -93.79092 34077 ft 481 kts 136°
2026-05-07 18:45 28.49269 -93.76144 34520 ft 478 kts 136°
2026-05-07 18:46 28.47181 -93.73215 34883 ft 477 kts 136°
2026-05-07 18:46 28.45093 -93.70285 35203 ft 477 kts 136°
2026-05-07 18:46 28.43004 -93.67354 35507 ft 477 kts 136°
2026-05-07 18:46 28.40913 -93.64420 35796 ft 478 kts 136°
2026-05-07 18:47 28.38820 -93.61489 36085 ft 478 kts 136°
2026-05-07 18:47 28.36720 -93.58555 36354 ft 478 kts 136°
2026-05-07 18:47 28.34622 -93.55626 36622 ft 479 kts 136°
2026-05-07 18:47 28.32521 -93.52690 36896 ft 479 kts 136°
2026-05-07 18:48 28.30417 -93.49749 36985 ft 481 kts 136°
2026-05-07 18:48 28.26182 -93.43832 37002 ft 484 kts 136°
2026-05-07 18:49 28.21935 -93.37905 37002 ft 484 kts 136°
2026-05-07 18:49 28.17682 -93.31992 37002 ft 484 kts 136°
2026-05-07 18:50 28.13426 -93.26078 36998 ft 484 kts 136°
2026-05-07 18:50 28.09170 -93.20159 37005 ft 485 kts 136°
2026-05-07 18:51 28.04933 -93.14278 37006 ft 485 kts 136°
2026-05-07 18:51 28.00664 -93.08374 36989 ft 485 kts 136°
2026-05-07 18:52 27.96389 -93.02471 37010 ft 484 kts 136°
2026-05-07 18:52 27.92121 -92.96586 37019 ft 483 kts 136°
2026-05-07 18:53 27.87862 -92.90708 37019 ft 483 kts 136°
2026-05-07 18:53 27.83602 -92.84844 37021 ft 482 kts 136°
2026-05-07 18:54 27.79337 -92.78988 37021 ft 482 kts 136°
2026-05-07 18:54 27.75072 -92.73139 37021 ft 482 kts 136°
2026-05-07 18:55 27.70848 -92.67328 37015 ft 482 kts 136°
2026-05-07 18:55 27.66594 -92.61496 37017 ft 481 kts 136°
2026-05-07 18:56 27.62333 -92.55680 37020 ft 481 kts 136°
2026-05-07 18:56 27.58075 -92.49871 37019 ft 481 kts 136°
2026-05-07 18:57 27.53819 -92.44054 37019 ft 481 kts 136°
2026-05-07 18:57 27.49549 -92.38254 37020 ft 480 kts 136°
2026-05-07 18:58 27.45288 -92.32464 36988 ft 480 kts 136°
2026-05-07 18:58 27.41034 -92.26671 37014 ft 479 kts 136°
2026-05-07 18:59 27.36778 -92.20897 37013 ft 479 kts 136°
2026-05-07 18:59 27.32518 -92.15130 36989 ft 480 kts 136°
2026-05-07 19:00 27.27960 -92.09796 36968 ft 467 kts 153°
2026-05-07 19:00 27.22459 -92.06000 36973 ft 465 kts 156°
2026-05-07 19:01 27.16897 -92.02267 36974 ft 467 kts 156°
2026-05-07 19:01 27.11312 -91.98522 36968 ft 468 kts 156°
2026-05-07 19:02 27.05716 -91.94766 36976 ft 469 kts 156°
2026-05-07 19:02 27.00111 -91.91005 36986 ft 470 kts 156°
2026-05-07 19:03 26.94487 -91.87230 36983 ft 472 kts 156°
2026-05-07 19:03 26.88853 -91.83454 36985 ft 473 kts 156°
2026-05-07 19:04 26.83195 -91.79677 36969 ft 474 kts 156°
2026-05-07 19:04 26.77531 -91.75896 36982 ft 474 kts 156°
2026-05-07 19:05 26.71896 -91.72134 36992 ft 475 kts 156°
2026-05-07 19:05 26.66218 -91.68355 37004 ft 475 kts 156°
2026-05-07 19:06 26.60536 -91.64576 37009 ft 475 kts 156°
2026-05-07 19:06 26.52015 -91.58897 36996 ft 475 kts 155°
2026-05-07 19:07 26.46340 -91.55121 37012 ft 475 kts 155°
2026-05-07 19:07 26.40658 -91.51369 37017 ft 474 kts 155°
2026-05-07 19:08 26.34982 -91.47612 37013 ft 474 kts 155°
2026-05-07 19:08 26.29303 -91.43847 37013 ft 474 kts 155°
2026-05-07 19:09 26.23666 -91.40123 36997 ft 474 kts 155°
2026-05-07 19:09 26.17988 -91.36378 37007 ft 474 kts 155°
2026-05-07 19:10 26.12311 -91.32640 37012 ft 474 kts 155°
2026-05-07 19:10 26.06632 -91.28902 37014 ft 474 kts 155°
2026-05-07 19:11 26.00957 -91.25163 37017 ft 474 kts 155°
2026-05-07 19:11 25.95276 -91.21427 37017 ft 474 kts 155°
2026-05-07 19:12 25.89598 -91.17702 36996 ft 474 kts 155°
2026-05-07 19:12 25.83910 -91.13986 37007 ft 474 kts 154°
2026-05-07 19:13 25.78262 -91.10284 37007 ft 475 kts 154°
2026-05-07 19:13 25.72562 -91.06556 37011 ft 475 kts 155°
2026-05-07 19:14 25.66860 -91.02838 37012 ft 476 kts 155°
2026-05-07 19:14 25.61154 -90.99121 36996 ft 476 kts 154°
2026-05-07 19:15 25.55446 -90.95397 37000 ft 476 kts 154°
2026-05-07 19:15 25.49733 -90.91670 37008 ft 477 kts 154°
2026-05-07 19:16 25.44014 -90.87947 37011 ft 477 kts 154°
2026-05-07 19:16 25.38291 -90.84234 37013 ft 477 kts 154°
2026-05-07 19:17 25.32604 -90.80549 37001 ft 477 kts 154°
2026-05-07 19:17 25.26881 -90.76839 37005 ft 477 kts 154°
2026-05-07 19:18 25.21151 -90.73125 37010 ft 477 kts 154°
2026-05-07 19:18 25.15419 -90.69416 37011 ft 477 kts 154°
2026-05-07 19:19 25.09681 -90.65713 37011 ft 478 kts 154°
2026-05-07 19:19 25.03944 -90.62019 37012 ft 478 kts 154°
2026-05-07 19:20 24.98209 -90.58316 37001 ft 478 kts 154°
2026-05-07 19:20 24.92467 -90.54617 37007 ft 478 kts 154°
2026-05-07 19:21 24.86727 -90.50921 37009 ft 478 kts 154°
2026-05-07 19:21 24.80981 -90.47231 37010 ft 478 kts 154°
2026-05-07 19:22 24.75237 -90.43544 37013 ft 478 kts 154°
2026-05-07 19:22 24.69524 -90.39888 37014 ft 478 kts 154°
2026-05-07 19:23 24.63774 -90.36208 37005 ft 478 kts 154°
2026-05-07 19:23 24.58023 -90.32533 37006 ft 478 kts 154°
2026-05-07 19:24 24.52269 -90.28852 37009 ft 478 kts 154°
2026-05-07 19:24 24.46512 -90.25169 37008 ft 479 kts 154°
2026-05-07 19:25 24.40758 -90.21495 37009 ft 479 kts 154°
2026-05-07 19:25 24.34992 -90.17828 37000 ft 479 kts 154°
2026-05-07 19:26 24.29231 -90.14166 37005 ft 479 kts 154°
2026-05-07 19:26 24.23504 -90.10527 37005 ft 479 kts 154°
2026-05-07 19:27 24.17741 -90.06870 37005 ft 479 kts 154°
2026-05-07 19:27 24.11977 -90.03216 37005 ft 479 kts 154°
2026-05-07 19:28 24.06218 -89.99559 36993 ft 479 kts 154°
2026-05-07 19:28 24.00450 -89.95909 36991 ft 479 kts 154°
2026-05-07 19:29 23.94679 -89.92263 36995 ft 479 kts 154°
2026-05-07 19:29 23.88903 -89.88618 36997 ft 480 kts 154°
2026-05-07 19:30 23.83122 -89.84968 36996 ft 480 kts 154°
2026-05-07 19:30 23.77289 -89.81590 36995 ft 475 kts 163°
2026-05-07 19:31 23.70943 -89.80030 36987 ft 464 kts 180°
2026-05-07 19:31 23.64500 -89.79701 36990 ft 464 kts 181°
2026-05-07 19:32 23.58049 -89.79366 36990 ft 464 kts 181°
2026-05-07 19:32 23.51596 -89.79013 36991 ft 464 kts 181°
2026-05-07 19:33 23.45140 -89.78658 36990 ft 465 kts 181°
2026-05-07 19:33 23.38677 -89.78314 36978 ft 465 kts 181°
2026-05-07 19:34 23.32213 -89.77981 36977 ft 465 kts 181°
2026-05-07 19:34 23.25745 -89.77649 36981 ft 465 kts 181°
2026-05-07 19:35 23.19275 -89.77311 36987 ft 466 kts 181°
2026-05-07 19:35 23.12804 -89.76960 36988 ft 466 kts 181°
2026-05-07 19:36 23.06330 -89.76622 36974 ft 466 kts 180°
2026-05-07 19:36 22.99896 -89.76285 36976 ft 466 kts 181°
2026-05-07 19:37 22.93424 -89.75945 36975 ft 466 kts 180°
2026-05-07 19:37 22.86931 -89.75597 36976 ft 466 kts 180°
2026-05-07 19:38 22.81543 -89.75315 36973 ft 466 kts 180°
2026-05-07 19:38 22.75026 -89.74738 36960 ft 471 kts 169°
2026-05-07 19:39 22.71961 -89.73595 36964 ft 476 kts 156°
2026-05-07 19:39 22.69156 -89.71684 36956 ft 481 kts 142°
2026-05-07 19:39 22.66805 -89.69095 36954 ft 485 kts 129°
2026-05-07 19:39 22.65053 -89.65973 36951 ft 488 kts 115°
2026-05-07 19:40 22.62873 -89.59001 36949 ft 490 kts 109°
2026-05-07 19:40 22.60803 -89.51974 36949 ft 491 kts 109°
2026-05-07 19:41 22.58722 -89.44926 36954 ft 491 kts 109°
2026-05-07 19:41 22.56639 -89.37877 36956 ft 492 kts 109°
2026-05-07 19:42 22.54559 -89.30827 36960 ft 492 kts 109°
2026-05-07 19:42 22.52473 -89.23776 36963 ft 492 kts 109°
2026-05-07 19:43 22.50373 -89.16728 36970 ft 492 kts 109°
2026-05-07 19:43 22.48263 -89.09687 36970 ft 492 kts 109°
2026-05-07 19:44 22.46167 -89.02647 36974 ft 492 kts 109°
2026-05-07 19:44 22.44068 -88.95607 36965 ft 492 kts 109°
2026-05-07 19:45 22.41985 -88.88628 36969 ft 491 kts 109°
2026-05-07 19:45 22.39885 -88.81604 36973 ft 491 kts 109°
2026-05-07 19:46 22.37776 -88.74594 36971 ft 490 kts 109°
2026-05-07 19:46 22.35669 -88.67585 36693 ft 490 kts 109°
2026-05-07 19:47 22.34619 -88.64087 36446 ft 489 kts 109°
2026-05-07 19:47 22.33565 -88.60589 36203 ft 490 kts 109°
2026-05-07 19:47 22.32511 -88.57093 35960 ft 490 kts 109°
2026-05-07 19:47 22.31454 -88.53591 35714 ft 490 kts 109°
2026-05-07 19:48 22.30395 -88.50086 35478 ft 491 kts 109°
2026-05-07 19:48 22.29335 -88.46584 35249 ft 492 kts 109°
2026-05-07 19:48 22.28268 -88.43073 34764 ft 492 kts 109°
2026-05-07 19:48 22.27197 -88.39548 33803 ft 497 kts 110°
2026-05-07 19:49 22.26115 -88.35980 32690 ft 500 kts 110°
2026-05-07 19:49 22.25047 -88.32456 31707 ft 501 kts 110°
2026-05-07 19:49 22.23963 -88.28881 30663 ft 502 kts 110°
2026-05-07 19:49 22.22880 -88.25309 29498 ft 502 kts 110°
2026-05-07 19:50 22.21794 -88.21732 28234 ft 499 kts 110°
2026-05-07 19:50 22.20722 -88.18201 26727 ft 493 kts 110°
2026-05-07 19:50 22.19650 -88.14681 25501 ft 494 kts 110°
2026-05-07 19:50 22.18572 -88.11154 24312 ft 494 kts 110°
2026-05-07 19:51 22.17502 -88.07657 23632 ft 484 kts 111°
2026-05-07 19:51 22.16475 -88.04291 23504 ft 461 kts 111°
2026-05-07 19:51 22.15497 -88.01077 23375 ft 441 kts 111°
2026-05-07 19:51 22.14549 -87.97998 23241 ft 423 kts 113°
2026-05-07 19:52 22.13314 -87.95194 23035 ft 406 kts 124°
2026-05-07 19:52 22.11645 -87.92786 22505 ft 400 kts 135°
2026-05-07 19:52 22.09621 -87.90753 22115 ft 394 kts 140°
2026-05-07 19:52 22.07599 -87.88793 21677 ft 390 kts 139°
2026-05-07 19:53 22.05616 -87.86838 20984 ft 382 kts 139°
2026-05-07 19:53 22.03679 -87.84913 20192 ft 375 kts 138°
2026-05-07 19:53 22.01779 -87.83021 19672 ft 372 kts 138°
2026-05-07 19:53 21.99883 -87.81135 19225 ft 368 kts 137°
2026-05-07 19:54 21.98021 -87.79289 18680 ft 368 kts 137°
2026-05-07 19:54 21.96148 -87.77440 18247 ft 365 kts 137°
2026-05-07 19:54 21.94270 -87.75587 17552 ft 367 kts 136°
2026-05-07 19:54 21.92395 -87.73737 17082 ft 363 kts 136°
2026-05-07 19:55 21.90551 -87.71921 16681 ft 356 kts 136°
2026-05-07 19:55 21.88730 -87.70126 16150 ft 354 kts 136°
2026-05-07 19:55 21.86919 -87.68342 15639 ft 352 kts 136°
2026-05-07 19:55 21.85117 -87.66567 15116 ft 350 kts 136°
2026-05-07 19:56 21.83313 -87.64794 14505 ft 352 kts 136°
2026-05-07 19:56 21.81521 -87.63035 14165 ft 345 kts 136°
2026-05-07 19:56 21.79762 -87.61306 13720 ft 341 kts 136°
2026-05-07 19:56 21.78011 -87.59584 13135 ft 341 kts 136°
2026-05-07 19:57 21.76257 -87.57859 12537 ft 342 kts 136°
2026-05-07 19:57 21.74510 -87.56141 12008 ft 340 kts 136°
2026-05-07 19:57 21.72773 -87.54431 11631 ft 334 kts 135°
2026-05-07 19:57 21.71074 -87.52759 11176 ft 330 kts 136°
2026-05-07 19:58 21.69377 -87.51093 10708 ft 328 kts 136°
2026-05-07 19:58 21.67722 -87.49474 10592 ft 315 kts 136°
2026-05-07 19:58 21.66128 -87.47917 10467 ft 304 kts 136°
2026-05-07 19:58 21.64588 -87.46407 10255 ft 297 kts 136°
2026-05-07 19:59 21.63041 -87.44956 9978 ft 293 kts 139°
2026-05-07 19:59 21.61452 -87.43569 9517 ft 296 kts 140°
2026-05-07 19:59 21.59840 -87.42208 9210 ft 292 kts 141°
2026-05-07 19:59 21.58251 -87.40874 8789 ft 293 kts 141°
2026-05-07 20:00 21.56663 -87.39537 8493 ft 289 kts 141°
2026-05-07 20:00 21.55090 -87.38203 8152 ft 286 kts 141°
2026-05-07 20:00 21.53555 -87.36898 7683 ft 278 kts 141°
2026-05-07 20:00 21.52049 -87.35613 7149 ft 273 kts 142°
2026-05-07 20:01 21.50579 -87.34359 6631 ft 267 kts 142°
2026-05-07 20:01 21.49141 -87.33129 6152 ft 262 kts 142°
2026-05-07 20:01 21.47713 -87.31908 5736 ft 260 kts 142°
2026-05-07 20:01 21.46293 -87.30693 5348 ft 262 kts 142°
2026-05-07 20:02 21.44871 -87.29478 4993 ft 261 kts 142°
2026-05-07 20:02 21.43468 -87.28280 4759 ft 255 kts 142°
2026-05-07 20:02 21.42070 -87.27085 4393 ft 257 kts 143°
2026-05-07 20:02 21.40696 -87.25909 4273 ft 247 kts 143°
2026-05-07 20:03 21.39377 -87.24779 4161 ft 238 kts 143°
2026-05-07 20:03 21.38095 -87.23710 4058 ft 228 kts 148°
2026-05-07 20:03 21.36733 -87.22931 3978 ft 216 kts 153°
2026-05-07 20:03 21.35414 -87.22217 3986 ft 215 kts 153°
2026-05-07 20:04 21.34080 -87.21493 3984 ft 215 kts 153°
2026-05-07 20:04 21.32743 -87.20767 3984 ft 215 kts 153°
2026-05-07 20:04 21.31396 -87.20036 3988 ft 219 kts 153°
2026-05-07 20:04 21.30030 -87.19293 3989 ft 219 kts 153°
2026-05-07 20:05 21.28670 -87.18555 3856 ft 218 kts 153°
2026-05-07 20:05 21.27330 -87.17829 3666 ft 216 kts 153°
2026-05-07 20:05 21.25983 -87.17100 3487 ft 217 kts 153°
2026-05-07 20:05 21.24646 -87.16377 3313 ft 214 kts 153°
2026-05-07 20:06 21.23320 -87.15660 3126 ft 214 kts 153°
2026-05-07 20:06 21.22109 -87.14698 3025 ft 223 kts 134°
2026-05-07 20:06 21.21202 -87.13358 2980 ft 215 kts 126°
2026-05-07 20:06 21.20412 -87.12079 2981 ft 197 kts 126°
2026-05-07 20:07 21.19683 -87.10904 2983 ft 183 kts 126°
2026-05-07 20:07 21.18992 -87.09795 3024 ft 176 kts 126°
2026-05-07 20:07 21.18319 -87.08716 3001 ft 174 kts 126°
2026-05-07 20:07 21.17646 -87.07636 3003 ft 174 kts 126°
2026-05-07 20:08 21.16975 -87.06561 2997 ft 173 kts 127°
2026-05-07 20:08 21.16311 -87.05495 3008 ft 171 kts 127°
2026-05-07 20:08 21.15650 -87.04434 2997 ft 171 kts 127°
2026-05-07 20:08 21.14985 -87.03370 3002 ft 173 kts 126°
2026-05-07 20:09 21.14314 -87.02294 2952 ft 174 kts 126°
2026-05-07 20:09 21.13644 -87.01220 2794 ft 172 kts 126°
2026-05-07 20:09 21.12988 -87.00169 2597 ft 172 kts 126°
2026-05-07 20:10 21.11661 -86.98043 2166 ft 171 kts 126°
2026-05-07 20:10 21.11033 -86.97035 1970 ft 150 kts 126°
2026-05-07 20:10 21.10482 -86.96153 1769 ft 138 kts 126°
2026-05-07 20:10 21.09950 -86.95314 1540 ft 134 kts 126°
2026-05-07 20:11 21.09433 -86.94495 1331 ft 131 kts 126°
2026-05-07 20:11 21.08936 -86.93675 1130 ft 131 kts 124°
2026-05-07 20:11 21.08449 -86.92857 996 ft 130 kts 125°
2026-05-07 20:11 21.07943 -86.92065 871 ft 129 kts 127°
2026-05-07 20:12 21.07438 -86.91265 735 ft 130 kts 125°
2026-05-07 20:12 21.06950 -86.90457 579 ft 128 kts 123°
2026-05-07 20:12 21.06431 -86.89671 396 ft 129 kts 122°
2026-05-07 20:12 21.05927 -86.88871 226 ft 131 kts 120°
2026-05-07 20:13 21.05435 -86.88065 67 ft 130 kts 124°
2026-05-07 20:13 21.04973 -86.87342 23 ft 99 kts 124°
2026-05-07 20:13 21.04687 -86.86884 22 ft 49 kts 124°
2026-05-07 20:13 21.04525 -86.86624 22 ft 29 kts 123°
2026-05-07 20:14 21.04409 -86.86465 20 ft 27 kts 138°
2026-05-07 20:14 21.04241 -86.86359 19 ft 29 kts 155°
2026-05-07 20:14 21.04094 -86.86256 18 ft 21 kts 118°
2026-05-07 20:14 21.03982 -86.86254 18 ft 20 kts 218°
2026-05-07 20:15 21.03860 -86.86341 18 ft 23 kts 213°
2026-05-07 20:15 21.03720 -86.86438 18 ft 25 kts 213°
2026-05-07 20:15 21.03596 -86.86527 19 ft 14 kts 213°
2026-05-07 20:15 21.03575 -86.86616 19 ft 15 kts 291°
2026-05-07 20:16 21.03543 -86.86693 18 ft 10 kts 240°
2026-05-07 20:16 21.03570 -86.86754 19 ft 9 kts 310°
2026-05-07 20:16 21.03592 -86.86785 19 ft 1 kts 307°
2026-05-07 20:16 21.03592 -86.86786 19 ft 0 kts 307°